CW8027 Weather Reports


Display with metric or nautical units.
time (UTC)temp
F
wind
direction
speed
MPH
gust
MPH
rain 1hr
in
rain 24hr
in
rain mn
in
humidity
%
barometer
mb
20260508012024 49 279 2.0 3.0 0.00 0.04 0.01 53 1007.8
20260508011035 49 291 1.0 3.0 0.00 0.04 0.01 53 1007.7
20260508010030 49 288 2.0 3.0 0.00 0.04 0.01 52 1007.7
20260508005040 49 295 1.0 3.0 0.00 0.04 0.01 52 1007.7
20260508004052 49 296 2.0 6.0 0.00 0.04 0.01 51 1007.5
20260508003031 50 273 2.0 7.0 0.00 0.04 0.01 50 1007.4
20260508002033 50 344 3.0 6.0 0.00 0.04 0.01 51 1007.2
20260508001021 50 5 3.0 6.0 0.00 0.04 0.01 50 1007.3
20260508000026 50 344 3.0 5.0 0.00 0.04 0.01 49 1007.2
20260507235051 50 311 3.0 9.0 0.00 0.04 0.01 48 1007.1
20260507234040 50 319 5.0 9.0 0.00 0.04 0.01 48 1007.1
20260507233039 50 251 5.0 9.0 0.00 0.04 0.01 48 1007.1
20260507232032 51 264 4.0 11.0 0.00 0.04 0.01 47 1007.0
20260507231035 51 284 4.0 9.0 0.00 0.04 0.01 47 1007.0
20260507230041 51 242 7.0 12.0 0.00 0.04 0.01 47 1007.1
20260507225040 51 267 8.0 14.0 0.00 0.04 0.01 47 1007.0
20260507224029 51 346 5.0 16.0 0.00 0.04 0.01 46 1006.9
20260507223059 52 269 9.0 16.0 0.00 0.04 0.01 45 1006.8
20260507222041 52 273 9.0 16.0 0.00 0.04 0.01 45 1007.0
20260507221051 52 250 4.0 16.0 0.00 0.04 0.01 46 1007.0
20260507220031 51 269 10.0 16.0 0.00 0.04 0.01 46 1007.1
20260507215101 51 248 12.0 19.0 0.00 0.04 0.01 45 1007.0
20260507214032 51 247 10.0 21.0 0.00 0.04 0.01 44 1007.0
20260507213031 51 275 10.0 17.0 0.00 0.04 0.01 44 1006.8
20260507212036 51 284 12.0 19.0 0.00 0.04 0.01 44 1006.9
20260507211037 50 260 10.0 21.0 0.00 0.04 0.01 46 1006.9
20260507210027 50 273 15.0 23.0 0.00 0.04 0.01 46 1006.9
20260507205029 50 279 12.0 26.0 0.00 0.04 0.01 48 1006.9
20260507204041 50 339 11.0 24.0 0.00 0.04 0.01 48 1006.9
20260507203023 52 259 10.0 22.0 0.00 0.04 0.01 45 1006.7
20260507202049 51 271 16.0 26.0 0.00 0.04 0.01 44 1006.6
20260507201036 52 264 14.0 24.0 0.00 0.04 0.01 44 1006.7
20260507200037 51 268 12.0 19.0 0.00 0.08 0.01 47 1006.7
20260507195043 51 270 11.0 18.0 0.00 0.08 0.01 49 1006.7
20260507194044 51 289 10.0 24.0 0.00 0.08 0.01 48 1006.8
20260507193031 52 236 11.0 28.0 0.00 0.08 0.01 44 1006.7
20260507192041 51 282 14.0 21.0 0.00 0.08 0.01 45 1006.8
20260507191023 51 261 14.0 23.0 0.00 0.08 0.01 46 1006.7
20260507190032 51 292 12.0 24.0 0.00 0.08 0.01 46 1006.7
20260507185032 50 238 15.0 27.0 0.00 0.08 0.01 44 1006.8
20260507184024 51 294 15.0 23.0 0.00 0.08 0.01 46 1006.7
20260507183024 51 318 13.0 25.0 0.00 0.08 0.01 45 1006.6
20260507182034 51 242 13.0 23.0 0.00 0.08 0.01 45 1006.6
20260507181101 51 307 12.0 23.0 0.00 0.08 0.01 44 1006.5
20260507180041 51 265 13.0 28.0 0.00 0.08 0.01 45 1006.7
20260507175051 50 298 15.0 28.0 0.00 0.08 0.01 46 1006.4
20260507174030 51 250 14.0 22.0 0.00 0.08 0.01 45 1006.6
20260507173041 50 295 15.0 22.0 0.00 0.08 0.01 46 1006.4
20260507172051 51 251 14.0 25.0 0.00 0.08 0.01 47 1006.5
20260507171032 51 215 12.0 27.0 0.00 0.08 0.01 47 1006.5
20260507170038 51 272 14.0 28.0 0.00 0.08 0.01 45 1006.5
20260507165038 51 234 14.0 30.0 0.00 0.08 0.01 46 1006.6
20260507164049 50 310 17.0 28.0 0.00 0.08 0.01 45 1006.6
20260507163031 50 218 14.0 30.0 0.00 0.08 0.01 48 1006.7
20260507162041 50 257 14.0 33.0 0.00 0.08 0.01 48 1006.7
20260507161041 49 279 16.0 30.0 0.00 0.08 0.01 48 1006.8
20260507160033 50 245 16.0 27.0 0.00 0.24 0.01 45 1006.8
20260507155048 50 217 11.0 33.0 0.00 0.24 0.01 47 1006.8
20260507154035 49 281 16.0 28.0 0.00 0.24 0.01 50 1006.7
20260507153044 49 244 15.0 26.0 0.00 0.24 0.01 53 1006.7
20260507152044 49 297 9.0 25.0 0.00 0.24 0.01 57 1006.7
20260507151033 48 229 12.0 19.0 0.00 0.24 0.01 57 1006.8
20260507150043 47 268 14.0 24.0 0.00 0.24 0.01 58 1006.7
20260507145039 47 240 12.0 23.0 0.00 0.47 0.01 59 1006.9
20260507144043 47 198 13.0 25.0 0.00 0.47 0.01 59 1006.9
20260507143045 47 238 14.0 25.0 0.00 0.47 0.01 59 1006.9
20260507142034 47 244 11.0 22.0 0.00 0.47 0.01 59 1006.9
20260507141044 47 223 11.0 21.0 0.00 0.47 0.01 60 1006.9
20260507140026 46 245 10.0 20.0 0.00 0.71 0.01 61 1006.9
20260507135027 46 245 12.0 20.0 0.00 0.71 0.01 60 1006.9
20260507134035 46 236 10.0 21.0 0.00 0.71 0.01 61 1006.9
20260507133039 45 239 12.0 20.0 0.00 0.71 0.01 62 1007.0
20260507132040 45 252 13.0 27.0 0.00 0.71 0.01 63 1007.1
20260507131029 44 305 12.0 24.0 0.00 0.71 0.01 63 1007.3
20260507130030 44 175 11.0 19.0 0.00 0.91 0.01 64 1007.2
20260507125059 45 252 7.0 22.0 0.00 0.91 0.01 65 1007.1
20260507124046 44 209 8.0 17.0 0.00 0.91 0.01 66 1007.3
20260507123050 44 288 11.0 22.0 0.00 0.91 0.01 66 1007.2
20260507122029 44 219 11.0 22.0 0.00 0.91 0.01 67 1007.2
20260507121030 43 188 14.0 25.0 0.00 0.91 0.01 66 1007.1
20260507120040 43 223 10.0 26.0 0.00 0.91 0.01 67 1007.2
20260507115049 43 239 9.0 20.0 0.00 1.10 0.01 68 1007.0
20260507114049 43 244 14.0 26.0 0.00 1.10 0.01 69 1007.0
20260507113057 43 198 11.0 23.0 0.00 1.10 0.01 70 1007.0
20260507112044 43 257 8.0 23.0 0.00 1.10 0.01 72 1007.1
20260507111023 43 228 14.0 28.0 0.00 1.10 0.01 71 1007.3
20260507110034 44 246 10.0 22.0 0.00 1.22 0.01 72 1006.9
20260507105033 44 198 12.0 21.0 0.00 1.22 0.01 77 1006.7
20260507104022 44 219 10.0 19.0 0.00 1.22 0.01 82 1006.4
20260507103023 44 229 8.0 17.0 0.04 1.22 0.01 84 1006.3
20260507102036 44 217 9.0 16.0 0.04 1.22 0.01 86 1006.4
20260507051043 44 212 4.0 9.0 0.00 1.22 0.00 86 1007.3
20260507050048 44 194 5.0 7.0 0.00 1.22 0.00 86 1007.4
20260507045025 45 244 3.0 8.0 0.00 1.22 0.00 86 1007.6
20260507044033 45 172 4.0 9.0 0.00 1.22 0.00 86 1007.8
20260507043034 45 218 5.0 11.0 0.00 1.22 0.00 86 1007.8
20260507042045 45 292 6.0 10.0 0.00 1.22 0.00 86 1008.0
20260507041026 45 215 6.0 10.0 0.00 1.22 0.00 86 1008.0
20260507040055 45 250 3.0 12.0 0.00 1.22 0.24 86 1008.1
20260507035045 45 258 5.0 8.0 0.00 1.22 0.24 86 1008.1
20260507034026 45 237 4.0 8.0 0.00 1.22 0.24 86 1008.1
20260507033036 45 223 6.0 10.0 0.00 1.22 0.24 86 1008.3
20260507032036 45 207 4.0 6.0 0.00 1.22 0.24 85 1008.4
20260507031047 45 223 4.0 7.0 0.00 1.22 0.24 85 1008.3
20260507030052 45 213 2.0 8.0 0.00 1.22 0.24 84 1008.4
20260507025035 45 244 5.0 8.0 0.00 1.22 0.24 84 1008.3
20260507024044 45 251 6.0 9.0 0.00 1.22 0.24 84 1008.4
20260507023042 45 204 3.0 8.0 0.00 1.22 0.24 83 1008.5
20260507022052 46 200 3.0 8.0 0.00 1.22 0.24 83 1008.5
20260507021033 46 221 3.0 9.0 0.00 1.22 0.24 82 1008.6
20260507020044 46 229 6.0 9.0 0.00 1.22 0.24 81 1008.6
20260507015025 46 239 5.0 10.0 0.00 1.22 0.24 81 1008.8
20260507014051 46 216 5.0 10.0 0.00 1.22 0.24 81 1008.7
20260507013032 46 240 4.0 9.0 0.00 1.22 0.24 80 1008.9